Hourly Weather Bolshoe Kleschino

Today, 30 July, Friday

Time Temperature Precipitation Wind Pressure Humidity
00:00 +17°C° 0 mm 2 mps 738 mmHg 96%
01:00 +16°C° 0 mm 2 mps 738 mmHg 97%
02:00 +16°C° 0 mm 2 mps 738 mmHg 97%
03:00 +17°C° 0 mm 2 mps 738 mmHg 96%
04:00 +17°C° 0 mm 2 mps 738 mmHg 95%
05:00 +18°C° 0 mm 1 mps 738 mmHg 94%
06:00 +19°C° 0.2 mm 2 mps 738 mmHg 86%
07:00 +20°C° 0.2 mm 2 mps 738 mmHg 78%
08:00 +23°C° 0.2 mm 2 mps 738 mmHg 69%
09:00 +23°C° 0.5 mm 2 mps 738 mmHg 70%
10:00 +23°C° 0.5 mm 2 mps 738 mmHg 70%
11:00 +24°C° 0.5 mm 2 mps 738 mmHg 71%
12:00 +24°C° 0.3 mm 2 mps 738 mmHg 63%
13:00 +25°C° 0.3 mm 3 mps 738 mmHg 56%
14:00 +26°C° 0.3 mm 3 mps 737 mmHg 49%
15:00 +25°C° 0 mm 3 mps 737 mmHg 51%
16:00 +24°C° 0 mm 3 mps 737 mmHg 53%
17:00 +22°C° 0 mm 4 mps 737 mmHg 55%
18:00 +20°C° 0 mm 3 mps 737 mmHg 63%
19:00 +19°C° 0 mm 2 mps 737 mmHg 70%
20:00 +17°C° 0 mm 2 mps 737 mmHg 78%
21:00 +17°C° 0 mm 2 mps 737 mmHg 78%
22:00 +17°C° 0 mm 2 mps 736 mmHg 79%
23:00 +16°C° 0 mm 2 mps 736 mmHg 79%

Tomorrow, 31 July, Saturday

Time Temperature Precipitation Wind Pressure Humidity
00:00 +16°C° 0 mm 2 mps 736 mmHg 79%
01:00 +16°C° 0 mm 2 mps 736 mmHg 78%
02:00 +16°C° 0 mm 3 mps 735 mmHg 78%
03:00 +16°C° 0 mm 3 mps 735 mmHg 75%
04:00 +15°C° 0 mm 4 mps 735 mmHg 73%
05:00 +15°C° 0 mm 4 mps 735 mmHg 70%
06:00 +15°C° 0.2 mm 4 mps 735 mmHg 73%
07:00 +15°C° 0.2 mm 5 mps 735 mmHg 76%
08:00 +16°C° 0.2 mm 5 mps 734 mmHg 79%
09:00 +19°C° 0 mm 6 mps 735 mmHg 67%
10:00 +21°C° 0 mm 6 mps 735 mmHg 56%
11:00 +23°C° 0 mm 7 mps 735 mmHg 44%
12:00 +23°C° 0.1 mm 7 mps 735 mmHg 46%
13:00 +23°C° 0.1 mm 6 mps 735 mmHg 48%
14:00 +22°C° 0.1 mm 6 mps 736 mmHg 50%
15:00 +23°C° 0 mm 5 mps 736 mmHg 49%
16:00 +23°C° 0 mm 5 mps 737 mmHg 49%
17:00 +23°C° 0 mm 4 mps 737 mmHg 48%
18:00 +22°C° 0 mm 3 mps 737 mmHg 57%
19:00 +20°C° 0 mm 3 mps 738 mmHg 65%
20:00 +18°C° 0 mm 2 mps 738 mmHg 74%
21:00 +17°C° 0 mm 2 mps 738 mmHg 80%
22:00 +17°C° 0 mm 3 mps 739 mmHg 87%
23:00 +16°C° 0 mm 3 mps 739 mmHg 94%

Day after tomorrow, 1 August, Sunday

Time Temperature Precipitation Wind Pressure Humidity
00:00 +16°C° 0 mm 2 mps 739 mmHg 95%
01:00 +16°C° 0 mm 2 mps 740 mmHg 96%
02:00 +15°C° 0 mm 2 mps 740 mmHg 97%
03:00 +16°C° 0 mm 2 mps 740 mmHg 96%
04:00 +16°C° 0 mm 2 mps 740 mmHg 94%
05:00 +16°C° 0 mm 2 mps 740 mmHg 93%
06:00 +18°C° 0 mm 2 mps 740 mmHg 83%
07:00 +20°C° 0 mm 3 mps 740 mmHg 74%
08:00 +22°C° 0 mm 3 mps 740 mmHg 64%
09:00 +23°C° 0.2 mm 4 mps 740 mmHg 60%
10:00 +25°C° 0.2 mm 4 mps 740 mmHg 55%
11:00 +26°C° 0.2 mm 5 mps 739 mmHg 50%
12:00 +25°C° 0.1 mm 5 mps 739 mmHg 54%
13:00 +25°C° 0.1 mm 5 mps 739 mmHg 57%
14:00 +23°C° 0.1 mm 4 mps 739 mmHg 61%
15:00 +23°C° 0.2 mm 4 mps 739 mmHg 62%
16:00 +23°C° 0.2 mm 4 mps 739 mmHg 64%
17:00 +24°C° 0.2 mm 3 mps 739 mmHg 66%
18:00 +21°C° 0.1 mm 3 mps 739 mmHg 73%
19:00 +20°C° 0.1 mm 3 mps 739 mmHg 79%
20:00 +19°C° 0.1 mm 2 mps 739 mmHg 85%
21:00 +18°C° 0.1 mm 2 mps 739 mmHg 88%
22:00 +17°C° 0.1 mm 2 mps 739 mmHg 91%
23:00 +18°C° 0.1 mm 1 mps 740 mmHg 93%

2 August, Monday

Time Temperature Precipitation Wind Pressure Humidity
00:00 +18°C° 0 mm 1 mps 740 mmHg 92%
01:00 +16°C° 0 mm 1 mps 740 mmHg 91%
02:00 +16°C° 0 mm 1 mps 740 mmHg 90%
03:00 +16°C° 0 mm 1 mps 740 mmHg 90%
04:00 +16°C° 0 mm 1 mps 740 mmHg 89%
05:00 +16°C° 0 mm 1 mps 740 mmHg 88%
06:00 +19°C° 0 mm 1 mps 740 mmHg 81%
07:00 +20°C° 0 mm 1 mps 740 mmHg 73%
08:00 +22°C° 0 mm 1 mps 740 mmHg 66%
09:00 +23°C° 0 mm 1 mps 739 mmHg 64%
10:00 +23°C° 0 mm 1 mps 739 mmHg 63%
11:00 +23°C° 0 mm 1 mps 739 mmHg 62%
12:00 +22°C° 0.1 mm 1 mps 738 mmHg 69%
13:00 +21°C° 0.1 mm 1 mps 738 mmHg 76%
14:00 +20°C° 0.1 mm 1 mps 738 mmHg 84%
15:00 +19°C° 1.6 mm 1 mps 737 mmHg 89%
16:00 +19°C° 1.6 mm 1 mps 736 mmHg 93%
17:00 +18°C° 1.6 mm 1 mps 736 mmHg 98%
18:00 +18°C° 0.8 mm 1 mps 735 mmHg 98%
19:00 +18°C° 0.8 mm 1 mps 735 mmHg 98%
20:00 +18°C° 0.8 mm 1 mps 734 mmHg 98%
21:00 +17°C° 1.9 mm 2 mps 734 mmHg 98%
22:00 +17°C° 1.9 mm 3 mps 734 mmHg 98%
23:00 +17°C° 1.9 mm 4 mps 734 mmHg 98%

3 August, Tuesday

Time Temperature Precipitation Wind Pressure Humidity
00:00 +15°C° 0.7 mm 4 mps 734 mmHg 97%
01:00 +15°C° 0.7 mm 4 mps 735 mmHg 96%
02:00 +15°C° 0.7 mm 4 mps 736 mmHg 96%
03:00 +14°C° 0 mm 4 mps 736 mmHg 96%
04:00 +14°C° 0 mm 3 mps 736 mmHg 96%
05:00 +14°C° 0 mm 3 mps 737 mmHg 96%
06:00 +14°C° 0 mm 3 mps 737 mmHg 92%
07:00 +15°C° 0 mm 4 mps 738 mmHg 89%
08:00 +17°C° 0 mm 4 mps 738 mmHg 85%
09:00 +18°C° 0.1 mm 4 mps 738 mmHg 75%
10:00 +20°C° 0.1 mm 5 mps 739 mmHg 66%
11:00 +21°C° 0.1 mm 5 mps 739 mmHg 57%
12:00 +21°C° 0.1 mm 5 mps 740 mmHg 57%
13:00 +21°C° 0.1 mm 5 mps 740 mmHg 57%
14:00 +21°C° 0.1 mm 5 mps 740 mmHg 57%
15:00 +21°C° 0.1 mm 5 mps 741 mmHg 58%
16:00 +20°C° 0.1 mm 4 mps 741 mmHg 60%
17:00 +20°C° 0.1 mm 4 mps 741 mmHg 62%
18:00 +18°C° 0 mm 3 mps 742 mmHg 70%
19:00 +17°C° 0 mm 3 mps 742 mmHg 79%
20:00 +15°C° 0 mm 2 mps 743 mmHg 88%
21:00 +14°C° 0 mm 2 mps 743 mmHg 91%
22:00 +13°C° 0 mm 2 mps 744 mmHg 94%
23:00 +13°C° 0 mm 1 mps 744 mmHg 97%

4 August, Wednesday

Time Temperature Precipitation Wind Pressure Humidity
00:00 +12°C° 0 mm 1 mps 745 mmHg 97%
01:00 +12°C° 0 mm 1 mps 745 mmHg 96%
02:00 +11°C° 0 mm 1 mps 746 mmHg 96%
03:00 +12°C° 0 mm 1 mps 746 mmHg 95%
04:00 +12°C° 0 mm 1 mps 746 mmHg 95%
05:00 +12°C° 0 mm 1 mps 746 mmHg 94%
06:00 +14°C° 0 mm 1 mps 747 mmHg 84%
07:00 +16°C° 0 mm 1 mps 747 mmHg 73%
08:00 +19°C° 0 mm 1 mps 747 mmHg 63%
09:00 +20°C° 0 mm 1 mps 747 mmHg 55%
10:00 +22°C° 0 mm 1 mps 747 mmHg 47%
11:00 +23°C° 0 mm 1 mps 747 mmHg 40%
12:00 +23°C° 0 mm 1 mps 747 mmHg 38%
13:00 +23°C° 0 mm 1 mps 747 mmHg 36%
14:00 +24°C° 0 mm 1 mps 748 mmHg 34%
15:00 +23°C° 0 mm 1 mps 748 mmHg 36%
16:00 +23°C° 0 mm 1 mps 748 mmHg 37%
17:00 +23°C° 0 mm 1 mps 747 mmHg 39%
18:00 +21°C° 0 mm 1 mps 748 mmHg 47%
19:00 +17°C° 0 mm 0 mps 748 mmHg 55%
20:00 +14°C° 0 mm 0 mps 748 mmHg 62%
21:00 +14°C° 0 mm 0 mps 748 mmHg 63%
22:00 +14°C° 0 mm 1 mps 748 mmHg 64%
23:00 +14°C° 0 mm 1 mps 748 mmHg 65%
Show more

We Need Your Consent

Meteoprog and our Service Providers may store and access personal data such as cookies, device identifiers or other similar technologies on your device and process such data to personalise content and ads, as well as provide social media features and to analyse the traffic.

  • Store and/or access information on your device

    Cookies, device identifiers or other information can be stored or accessed on your device for the purposes indicated above.

  • Personalised ads and content, ad and content measurement, audience insights, and products development

    Ads and content can be personalised based on a profile. More data can be added to better personalise ads and content. Ad and content performance can be measured. Insights about the audience who saw the ads and content can be derived. Such data can be used to develop or improve user’s experience, systems and software.

By clicking ‘I Agree’ you will allow the use of indicated cookies, device identifiers, web beacons or other similar technologies. Your settings can be changed in the browser on your device.

For certain purposes, legitimate interests may be relied on, rather than consent. You can read more about this in our Privacy and Cookie Policy.